Location: Adrasan
(36.3319°N, 30.4314°E)
Time: 03:04:20
(UTC+00:00)

COSMO-SKYMED 1 - Pass Details

Date: 19 October 2025
Orbit: 580 x 582 km, 97.9° (Epoch: 13 November)

Event Time Altitude Azimuth Distance (km) Brightness Sun altitude
Rises 16:15:50 0° 11° (N) 2,806 5.8 -12.6°
Reaches altitude 10° 16:18:00 10° 10° (N) 1,902 4.9 -13.0°
Maximum altitude 16:22:07 83° 285° (WNW) 590 2.5 -13.8°
Drops below altitude 10° 16:26:12 10° 196° (SSW) 1,881 5.3 -14.7°
Sets 16:28:21 0° 195° (SSW) 2,781 6.1 -15.1°
